CW3442 Weather Reports


Display with metric or nautical units.
time (UTC)temp
F
wind
direction
speed
MPH
gust
MPH
rain 1hr
in
rain 24hr
in
rain mn
in
humidity
%
barometer
mb
20260905193539 69 84 0.0 0.0 0.00 0.00 0.00 73 1009.8
20260905190544 69 109 0.0 0.0 0.00 0.00 0.00 74 1010.1
20260905183538 69 117 0.0 0.0 0.00 0.00 0.00 75 1010.1
20260905180528 70 49 0.0 0.0 0.00 0.00 0.00 73 1010.0
20260905173525 68 86 0.0 0.0 0.00 0.00 0.00 80 1010.0
20260905170532 67 81 0.0 0.0 0.00 0.00 0.00 80 1010.1
20260905163536 67 342 0.0 0.0 0.00 0.00 0.00 80 1010.3
20260905160531 65 87 0.0 0.0 0.00 0.00 0.00 83 1010.2
20260905153551 67 68 0.0 0.0 0.00 0.00 0.00 81 1010.1
20260905150528 67 122 0.0 0.0 0.00 0.00 0.00 82 1010.1
20260905143539 67 78 0.0 0.0 0.00 0.00 0.00 82 1010.0
20260905140533 66 95 0.0 0.0 0.00 0.00 0.00 82 1010.0
20260905133537 67 81 0.0 0.0 0.00 0.00 0.00 82 1009.7
20260905130539 66 81 0.0 0.0 0.00 0.00 0.00 83 1009.3
20260905123537 64 302 0.0 0.0 0.00 0.00 0.00 90 1009.1
20260905120529 62 302 0.0 0.0 0.00 0.00 0.00 93 1009.0
20260905113558 62 302 0.0 0.0 0.00 0.00 0.00 94 1009.0
20260905110536 62 302 0.0 0.0 0.00 0.00 0.00 94 1009.0
20260905103531 62 302 0.0 0.0 0.00 0.00 0.00 94 1008.8
20260905100550 62 302 0.0 0.0 0.00 0.00 0.00 94 1008.7
20260905093550 62 302 0.0 0.0 0.00 0.00 0.00 94 1008.4
20260905090542 61 301 0.0 0.0 0.00 0.00 0.00 94 1008.1
20260905083523 61 301 0.0 0.0 0.00 0.00 0.00 93 1008.0
20260905080546 61 301 0.0 0.0 0.00 0.00 0.00 93 1007.9
20260905073543 61 301 0.0 0.0 0.00 0.00 0.00 93 1007.8
20260905070559 61 301 0.0 0.0 0.00 0.00 0.00 92 1007.6
20260905063537 61 301 0.0 0.0 0.00 0.00 0.00 92 1007.4
20260905060533 61 301 0.0 0.0 0.00 0.00 0.00 91 1007.5
20260905053528 61 301 0.0 0.0 0.00 0.00 0.00 90 1007.5
20260905050539 62 301 0.0 0.0 0.00 0.00 0.00 89 1007.4
20260905043533 62 301 0.0 0.0 0.00 0.00 0.00 87 1007.3
20260905040526 64 301 0.0 0.0 0.00 0.00 0.00 86 1007.3
20260905033542 64 301 0.0 0.0 0.00 0.00 0.00 85 1007.4
20260905030535 65 301 0.0 0.0 0.00 0.00 0.00 86 1007.5
20260905023533 65 301 0.0 0.0 0.00 0.00 0.00 86 1007.5
20260905020540 65 301 0.0 0.0 0.00 0.00 0.00 85 1007.4
20260905013557 66 301 0.0 0.0 0.00 0.00 0.00 83 1007.4
20260905010546 67 301 0.0 0.0 0.00 0.00 0.00 83 1007.0
20260905003545 68 301 0.0 0.0 0.00 0.00 0.00 81 1006.9
20260905000603 69 301 0.0 0.0 0.00 0.00 0.00 81 1006.7
20260904233537 69 301 0.0 0.0 0.00 0.00 0.00 80 1006.5
20260904230531 70 301 0.0 0.0 0.00 0.00 0.00 80 1006.6
20260904223524 71 301 0.0 0.0 0.00 0.00 0.00 79 1006.6
20260904220537 71 301 0.0 0.0 0.00 0.00 0.00 79 1006.5
20260904213549 72 301 0.0 0.0 0.00 0.00 0.00 73 1006.4
20260904210531 73 301 0.0 0.0 0.00 0.00 0.00 67 1006.4
20260904203526 73 83 0.0 0.0 0.00 0.00 0.00 68 1006.4
20260904200545 73 83 0.0 0.0 0.00 0.00 0.00 73 1006.4